GFSWCAN_850_rhum_102.txt.gz
RH
94 87 76 75 78 85 88 81 80 78 80 81 80 85 85 84 81 87 97 92 99 88 74 66 60 63 81 71 73 96 79 67 98 97 79 59 60 53 56 42 98 81 90 85 72 75 74 34 37 58 65 50 60 62
94 84 83 89 85 80 75 70 75 82 87 87 86 84 84 88 85 81 95 93 97 99 75 79 71 63 58 75 85 84 92 86 100 99 83 96 90 74 73 77 58 96 51 68 55 54 41 40 42 58 59 59 59 59
80 79 74 70 72 77 74 75 83 93 96 98 95 94 88 83 88 84 93 92 95 100 95 90 72 64 66 74 62 68 62 53 58 100 100 99 94 88 96 70 78 52 59 63 72 52 60 48 37 47 50 52 51 51
84 88 70 72 83 83 80 84 94 98 98 97 96 96 88 90 85 82 86 88 96 95 86 63 56 72 64 64 64 72 78 65 66 72 98 100 87 57 81 84 89 63 41 44 46 50 46 45 44 48 46 45 46 47
91 93 92 88 84 88 96 99 98 98 98 99 95 94 90 87 84 83 88 85 88 94 74 82 76 57 60 69 68 64 67 79 78 90 99 96 62 67 63 58 60 38 38 46 67 59 54 57 39 33 37 38 53 63
98 100 99 94 92 98 99 100 100 100 99 98 94 96 91 92 88 98 100 93 88 91 97 79 61 74 60 70 71 68 71 69 89 98 99 80 64 65 78 58 36 36 50 43 40 40 32 33 32 33 33 51 63 78
98 87 90 99 100 100 99 95 98 100 99 99 97 96 96 97 98 99 96 92 67 90 98 94 65 48 57 74 82 79 74 78 97 100 99 78 66 62 100 77 44 42 39 36 33 32 34 34 39 37 36 61 73 74
100 98 100 100 100 97 86 85 95 100 100 100 99 95 99 99 99 99 93 99 100 100 99 100 86 65 69 85 83 79 79 86 100 99 99 88 61 64 87 49 41 37 33 33 35 33 44 44 47 36 42 58 72 93
99 99 98 98 94 98 99 90 96 100 99 100 99 97 99 99 99 98 95 98 100 98 98 99 79 69 72 73 74 78 78 91 76 90 72 58 64 77 51 40 39 36 34 34 33 41 47 42 62 48 54 57 77 92
96 88 91 91 90 93 88 95 91 98 100 99 99 99 99 98 98 97 99 99 99 99 100 90 65 76 71 71 81 77 75 74 79 68 54 74 67 46 42 40 39 39 43 54 52 54 58 58 56 64 62 70 80 95
95 95 98 99 91 96 98 93 92 99 99 99 99 99 99 98 94 99 99 99 99 99 92 76 61 71 68 88 88 67 93 77 80 52 63 61 56 80 77 81 87 87 79 77 76 75 73 72 71 70 69 86 87 90
99 100 90 78 88 97 100 99 100 100 98 98 94 100 100 98 99 100 99 90 84 66 65 71 60 55 77 77 90 94 84 92 85 82 95 66 94 80 81 83 86 90 96 91 89 89 88 87 85 88 87 96 95 100
99 100 97 92 96 100 99 99 100 98 98 98 93 97 98 100 98 88 86 80 75 75 71 71 94 96 91 82 98 100 96 80 60 88 68 91 82 84 88 94 89 87 100 99 100 99 99 97 94 94 94 100 100 100
100 100 100 100 98 99 100 99 99 100 99 99 99 98 95 96 81 76 68 68 90 80 72 73 86 79 86 94 91 82 76 77 78 84 81 90 91 88 92 98 99 99 100 100 100 98 96 97 99 100 100 100 100 100
100 100 100 100 100 100 99 99 98 93 92 89 74 89 87 88 93 98 98 98 100 98 76 81 78 79 96 96 90 84 94 86 81 91 92 94 98 94 97 100 100 100 100 100 100 97 95 95 97 97 98 98 97 97
99 99 99 100 100 100 100 97 73 58 85 84 87 82 92 86 94 95 99 99 100 100 98 92 96 95 94 85 89 78 72 85 90 91 95 90 97 98 99 100 100 100 100 100 99 95 96 96 95 95 96 96 96 96
98 99 92 94 99 73 75 68 75 82 85 78 85 97 95 89 93 97 99 100 97 99 99 93 99 84 86 81 92 86 90 90 84 94 96 98 99 100 93 97 95 93 98 100 100 98 96 96 96 97 95 97 96 97
93 67 68 58 55 55 55 82 78 73 81 93 84 92 92 100 97 97 99 97 98 98 98 91 77 93 91 91 88 92 93 95 97 95 99 99 97 94 95 95 95 95 95 95 96 96 97 97 96 100 96 97 97 97
82 90 81 97 91 82 82 85 72 74 89 92 94 95 95 98 97 97 96 96 98 99 91 90 81 87 88 86 88 89 95 94 92 95 100 91 89 92 92 93 95 95 97 97 97 97 97 97 96 96 97 98 96 97
84 97 96 89 73 75 82 79 72 75 85 88 90 93 93 97 99 99 100 100 97 94 89 87 89 91 92 96 100 100 100 96 97 97 97 100 98 91 95 97 94 95 99 96 96 95 96 96 96 97 96 96 96 96
70 60 66 67 81 86 90 80 78 81 85 85 89 80 91 88 91 92 93 94 87 89 87 94 96 100 96 95 95 98 95 96 99 100 99 97 96 99 98 95 96 96 100 96 97 97 96 97 100 99 97 96 97 96
64 75 85 68 88 82 81 79 78 84 79 83 80 78 83 81 83 92 95 87 90 96 98 98 96 95 96 94 95 97 96 96 94 97 96 96 97 96 96 94 95 95 96 96 96 99 99 98 96 96 96 96 96 95
57 57 67 85 81 80 94 97 88 92 81 77 77 72 81 83 93 96 90 94 97 95 95 95 97 94 94 94 95 94 96 97 100 100 96 95 95 95 95 95 96 97 97 98 96 96 96 96 96 95 96 96 95 55
50 62 92 90 78 85 81 77 75 82 90 84 82 86 85 89 93 88 88 92 98 96 96 96 97 98 96 97 100 100 99 97 100 98 96 96 96 96 96 96 96 96 96 96 97 96 96 96 96 82 58 53 51 48
58 84 83 79 79 71 77 79 81 65 84 67 70 82 81 88 77 81 85 90 97 98 100 98 96 98 100 100 100 100 97 96 100 100 98 95 97 97 97 96 98 96 96 96 96 98 100 100 100 100 100 88 84 70
85 80 74 76 75 73 72 78 76 79 72 76 78 73 75 67 69 84 79 92 97 98 100 99 99 98 100 100 100 100 96 98 100 94 96 96 97 96 96 97 97 97 97 100 100 100 100 99 98 95 87 80 68 52
80 81 75 71 75 72 75 72 66 70 78 81 75 74 66 75 80 83 94 98 99 100 100 99 100 100 100 100 99 97 97 96 95 96 96 96 96 95 96 96 96 98 97 83 81 74 63 55 48 42 35 34 36 34
70 76 85 79 76 70 72 70 73 78 75 75 65 78 79 82 85 94 100 100 98 99 100 100 100 100 99 100 97 97 98 97 96 96 96 96 96 96 96 96 96 92 79 82 75 70 56 49 41 42 43 41 40 40
79 76 75 79 71 76 81 77 78 79 86 92 74 76 80 95 100 100 100 100 99 100 100 100 98 98 98 97 96 96 96 95 97 97 100 100 98 98 99 100 94 80 56 39 38 42 46 45 40 35 33 35 38 40
79 74 70 71 77 82 91 93 93 94 90 89 90 93 96 100 100 100 100 100 100 100 100 100 100 100 100 100 98 96 96 96 95 98 100 100 100 100 100 91 96 100 72 45 39 38 37 35 32 33 36 40 45 40
73 69 67 70 80 91 92 94 93 94 96 94 91 89 93 100 100 100 99 100 99 100 100 100 100 100 100 96 100 100 99 97 97 97 98 98 97 92 80 82 95 98 96 99 94 87 70 91 74 53 69 84 68 73
73 70 69 74 84 92 100 97 87 90 93 90 90 95 100 96 92 100 96 100 100 100 100 100 100 98 85 76 63 45 43 45 43 45 43 45 47 50 53 55 58 60 59 58 59 60 78 100 100 100 85 73 63 76
78 77 77 76 83 80 88 93 73 80 81 81 87 91 98 96 93 100 100 100 100 100 100 99 79 50 46 45 64 58 42 39 37 36 36 36 39 40 43 44 49 57 81 98 85 66 66 76 85 74 71 67 54 51

GFSWCAN_850_rhum_105.txt.gz
RH
96 94 93 83 78 76 81 82 79 84 78 82 82 79 79 81 89 87 76 87 100 97 80 71 61 72 71 76 93 98 84 98 98 94 97 86 88 69 67 53 80 96 83 88 85 91 84 47 43 52 76 58 61 62
89 81 83 91 90 91 92 89 86 81 75 71 75 82 80 72 82 91 90 77 87 99 88 77 82 78 74 67 64 78 98 99 99 100 100 99 96 92 91 94 98 98 74 85 77 73 72 69 71 67 56 56 56 53
85 91 90 86 77 72 76 82 77 73 74 71 80 91 87 86 75 90 87 78 93 99 89 74 65 46 54 55 60 74 77 70 79 84 98 100 99 100 96 94 94 99 88 100 87 74 74 65 59 53 47 43 46 45
84 88 86 83 86 88 76 75 71 78 75 76 91 96 94 91 91 84 92 78 88 98 100 74 58 61 58 61 65 68 71 66 70 78 82 99 99 69 88 77 77 69 90 99 97 83 75 76 59 46 48 48 41 54
89 87 77 68 78 92 91 88 85 85 81 93 97 95 96 94 91 91 90 88 85 95 95 89 73 51 57 60 71 57 65 69 69 95 99 99 85 77 90 81 82 58 74 83 100 86 91 71 43 41 47 46 61 58
83 86 89 91 95 98 98 97 98 98 98 98 99 98 98 96 96 100 99 89 87 92 98 99 64 57 67 71 59 62 70 73 71 98 99 87 69 73 100 89 42 45 45 45 50 44 45 38 45 49 48 55 63 63
81 85 98 100 100 100 98 95 99 100 100 99 99 98 98 97 98 99 95 86 64 84 99 97 90 50 50 45 73 82 74 82 75 90 100 89 72 70 99 88 49 48 50 44 37 36 46 47 52 54 54 61 63 64
93 100 100 100 100 97 99 100 99 100 100 100 99 98 97 99 99 99 96 100 96 100 95 99 93 77 59 70 86 83 96 89 98 98 100 95 78 78 95 66 57 49 42 37 37 49 54 55 55 69 66 65 70 73
99 99 100 99 99 98 99 96 90 92 100 100 99 98 99 99 99 98 82 99 99 98 99 96 96 86 64 70 77 86 81 100 98 97 97 89 86 88 66 59 62 69 63 62 52 58 62 65 63 69 80 76 75 83
99 100 100 99 100 100 92 96 83 99 100 99 99 99 99 98 99 98 99 99 99 99 100 94 82 89 63 71 99 99 87 96 97 92 71 92 85 82 82 90 88 85 83 77 77 79 76 74 72 72 74 78 80 84
95 90 87 88 91 95 96 94 96 100 99 99 98 98 98 100 94 99 99 99 99 99 99 94 76 87 62 92 95 75 94 94 88 82 86 90 96 92 84 85 90 82 85 89 86 84 82 84 85 81 85 88 90 90
100 99 99 97 99 99 99 98 100 98 98 86 91 99 100 95 99 99 98 99 98 85 85 92 76 66 68 70 89 95 93 90 89 78 95 96 95 89 93 94 95 95 89 99 100 99 95 90 89 89 90 98 95 98
99 96 95 100 100 100 100 100 98 96 97 99 97 100 94 100 98 98 97 95 96 79 68 75 95 80 75 70 99 97 92 87 71 97 96 94 96 93 96 96 98 99 100 100 100 100 97 98 100 100 99 100 100 100
99 90 89 99 100 100 100 99 98 100 99 98 99 99 98 97 94 93 95 93 94 78 67 82 95 94 85 92 87 82 88 83 89 95 96 95 97 97 94 98 99 100 100 100 100 99 96 95 97 98 99 96 98 99
100 98 99 100 100 99 100 100 99 98 95 95 80 98 97 94 95 99 100 98 99 86 77 79 88 80 96 93 92 92 84 82 94 98 98 99 94 94 94 98 97 99 100 99 96 94 94 96 96 96 96 95 96 96
100 98 99 99 100 99 100 99 98 77 72 78 89 92 92 92 98 98 99 99 100 100 84 84 87 89 95 92 88 82 87 96 98 97 98 90 94 92 95 94 95 96 93 95 94 95 96 96 96 96 96 96 96 95
92 98 100 99 99 99 100 95 91 87 81 82 96 95 97 96 99 99 96 98 99 93 96 91 88 76 94 96 97 97 97 98 99 98 86 85 91 91 98 94 93 97 94 91 92 93 94 95 97 97 94 97 96 96
95 99 99 94 81 80 82 78 77 76 93 94 93 98 98 98 96 98 98 96 97 98 98 97 88 96 97 96 97 97 97 97 87 84 81 80 89 86 90 94 94 94 93 93 94 92 94 95 95 97 96 96 96 97
94 91 79 89 92 73 78 76 69 87 95 92 91 84 86 94 97 97 95 98 97 92 85 85 91 98 98 97 97 96 97 93 99 98 95 81 82 93 95 96 96 94 97 99 100 100 96 93 94 97 97 96 95 96
97 97 99 97 65 74 82 76 75 84 94 91 87 91 92 98 92 93 91 93 94 92 93 94 97 98 98 98 97 95 98 94 95 93 96 95 89 83 91 93 90 94 94 95 93 95 98 99 98 96 96 96 96 96
94 94 84 70 64 77 88 77 82 86 96 92 88 83 94 81 93 92 94 95 86 96 95 96 96 95 96 96 96 95 94 94 96 97 97 97 97 93 90 98 98 99 99 99 98 98 96 97 98 97 97 96 96 96
99 86 73 68 74 78 73 74 79 80 87 92 94 86 89 92 93 95 88 89 94 96 96 96 95 95 97 94 94 96 96 97 95 94 93 93 96 98 99 96 96 97 96 96 96 94 95 96 96 96 96 96 96 96
63 61 74 76 77 78 92 95 92 93 93 91 78 83 91 92 96 88 96 94 96 96 96 97 96 95 96 95 96 96 96 93 95 97 96 95 96 97 97 96 96 96 96 96 96 96 96 97 97 95 96 96 96 96
54 65 85 85 79 93 74 81 78 88 90 90 91 95 94 95 95 93 95 95 96 95 95 96 95 97 96 94 94 96 97 98 96 95 98 93 94 97 96 95 96 96 96 96 96 96 96 96 96 96 96 96 96 96
54 82 78 87 77 85 91 94 94 82 95 91 92 96 96 93 94 94 94 96 96 95 95 97 94 94 96 96 93 96 95 97 95 94 98 97 95 96 95 96 97 96 96 96 96 96 96 96 88 76 70 61 54 52
93 76 80 88 86 86 90 93 92 90 88 90 92 77 74 89 88 97 92 97 95 97 97 96 99 96 94 95 96 95 96 97 96 91 98 96 97 97 96 96 96 97 97 96 96 96 99 100 96 90 85 80 66 51
93 94 82 74 87 77 85 72 68 86 94 96 92 89 88 94 98 96 94 95 95 98 96 95 95 95 96 99 99 98 98 98 94 94 97 97 96 96 95 94 96 97 96 90 88 84 80 78 75 70 62 59 55 49
76 82 95 80 80 77 87 89 91 94 92 88 76 97 97 97 98 98 96 96 99 98 98 97 94 94 95 95 96 96 98 100 98 97 96 95 96 97 97 97 97 97 96 95 79 53 57 64 42 39 42 44 45 45
81 76 71 86 76 86 92 93 96 94 96 97 94 96 97 98 99 98 98 96 94 90 89 93 100 100 95 98 98 98 98 98 100 97 95 98 96 99 98 97 97 96 95 92 89 78 60 50 47 46 46 43 45 48
80 73 72 83 93 98 97 82 90 84 84 85 96 99 96 99 100 99 97 100 96 94 97 96 98 96 97 94 97 97 98 98 96 95 97 98 99 98 98 98 97 77 58 52 49 43 39 42 38 38 38 41 48 50
71 66 72 85 95 97 86 87 92 89 84 82 79 85 94 96 99 98 97 99 99 100 98 94 94 95 96 96 94 95 95 97 98 97 96 97 97 98 98 98 97 94 84 82 72 69 72 66 62 55 61 65 68 59
72 69 73 96 97 96 97 97 91 94 98 93 94 93 100 100 100 98 100 100 98 94 92 78 60 57 50 47 43 40 39 43 46 50 52 53 53 52 50 56 62 66 68 73 81 92 100 99 100 93 81 72 63 55
81 74 75 80 94 91 92 93 79 88 90 89 93 96 90 96 100 100 99 100 96 88 68 50 45 45 46 43 41 44 42 39 36 36 36 37 40 44 47 51 53 55 61 64 63 64 71 80 82 74 68 60 55 49

GFSWCAN_850_rhum_108.txt.gz
RH
97 97 96 86 77 78 85 87 84 80 79 82 82 89 88 88 83 96 86 86 91 98 80 64 62 73 72 79 94 81 76 94 93 95 86 90 94 78 87 65 87 97 96 92 84 94 86 61 74 63 75 62 65 64
95 96 92 89 90 80 77 76 73 71 72 76 78 79 86 75 77 98 96 86 85 99 90 83 77 80 82 81 80 74 82 98 98 97 96 96 97 95 96 95 96 97 99 87 78 73 62 74 73 70 61 55 54 50
96 92 89 83 79 86 92 91 87 84 95 87 75 74 73 74 77 83 89 88 97 98 95 86 67 49 55 59 74 78 86 74 86 81 95 96 95 95 96 88 92 100 98 99 81 89 92 85 70 62 57 50 43 49
93 89 87 85 81 86 86 74 76 72 77 78 70 77 77 82 97 95 93 89 97 90 99 79 57 60 54 60 61 64 65 70 69 75 90 92 96 77 91 75 82 98 100 100 96 98 95 76 73 54 51 48 51 60
85 88 91 79 83 87 87 84 76 90 78 74 77 79 84 96 98 99 100 90 91 86 98 92 69 46 44 60 59 70 67 74 80 87 99 95 94 96 86 94 91 76 82 82 96 92 86 72 54 56 51 58 61 67
81 80 81 86 88 79 72 68 77 93 93 90 92 93 93 98 98 100 99 98 90 94 98 98 68 57 44 64 77 66 70 70 71 92 94 99 72 78 99 97 60 46 42 48 53 49 52 53 61 62 60 76 75 62
92 90 86 81 85 88 85 87 95 99 98 97 98 98 97 99 99 99 92 73 66 90 99 97 92 55 50 49 48 68 75 80 80 85 99 97 76 80 98 98 53 50 55 53 53 52 61 74 74 70 70 70 68 71
81 75 68 72 75 84 93 98 100 100 99 98 98 98 99 99 99 99 98 97 94 99 90 99 93 79 54 64 81 81 99 100 100 99 99 96 85 87 98 79 88 84 70 63 60 66 68 73 81 83 80 78 74 78
70 68 79 88 97 99 99 100 100 99 100 99 99 99 99 99 99 97 95 99 99 87 99 97 97 88 70 70 82 100 99 99 98 99 98 98 91 98 97 94 98 98 95 91 79 68 69 78 75 80 78 80 81 83
75 88 98 98 98 99 100 100 100 99 100 99 99 99 99 98 98 91 99 96 99 99 99 97 75 97 68 81 99 100 100 99 98 93 84 100 97 99 99 100 94 90 98 93 90 96 86 84 87 86 83 90 90 91
97 98 99 99 100 99 98 99 92 99 99 99 98 99 99 98 96 97 99 99 99 98 99 95 84 91 64 91 97 99 97 96 94 83 93 95 97 94 99 100 94 85 88 97 100 100 100 100 94 88 88 97 98 95
99 99 99 97 99 99 100 98 99 99 96 89 91 99 100 94 99 99 97 98 98 92 89 95 93 79 70 74 93 97 94 89 89 87 98 96 94 99 96 98 100 94 92 100 100 100 99 97 100 96 90 96 100 99
100 96 95 97 98 98 100 100 99 100 93 97 97 99 97 100 99 97 96 99 100 86 82 92 96 71 82 84 99 96 95 94 81 98 95 93 96 97 98 96 97 97 96 100 98 88 90 93 100 100 100 99 98 99
95 97 95 100 99 100 100 99 100 99 98 96 99 98 95 97 95 92 88 88 77 89 75 73 99 84 85 90 95 92 91 94 94 96 96 96 97 93 92 96 92 100 97 92 86 86 88 91 95 99 98 97 97 97
90 88 92 100 100 100 99 100 99 96 84 98 88 99 98 93 99 100 100 99 100 93 76 85 89 84 99 93 83 91 84 87 96 97 98 100 98 94 92 92 92 95 93 85 86 88 90 93 96 95 97 97 96 96
99 100 99 100 99 100 100 99 93 88 85 77 88 93 99 93 98 98 100 100 100 94 75 76 91 91 98 94 86 75 93 96 97 100 97 85 90 90 97 96 92 96 93 88 88 87 91 96 97 97 97 98 97 97
98 98 99 100 100 100 99 99 92 95 89 86 97 97 98 96 99 98 98 97 100 92 95 83 88 81 93 93 96 96 98 97 99 95 82 79 84 86 88 92 92 94 91 86 85 88 91 94 98 99 95 98 97 97
98 100 99 99 99 99 98 96 94 86 96 92 94 97 100 98 96 96 97 97 98 98 94 97 90 93 97 96 98 98 96 97 98 98 92 77 74 82 80 79 78 78 83 86 85 86 89 95 97 98 98 98 97 97
99 99 100 99 96 90 96 87 66 94 96 93 94 87 90 96 98 98 99 97 97 97 86 74 92 99 99 97 97 96 100 99 100 97 100 90 77 79 95 91 89 88 96 98 99 98 94 95 96 96 95 97 95 96
98 86 83 89 62 68 76 76 74 84 97 93 84 91 97 98 95 95 95 95 91 92 93 95 98 98 98 100 99 97 98 95 94 94 97 95 86 83 88 92 92 95 96 97 97 98 97 100 98 97 97 97 96 96
98 98 96 73 71 71 74 74 84 83 88 82 79 82 91 86 90 89 87 92 86 95 96 97 98 97 99 97 95 95 95 96 100 97 96 96 96 96 92 98 100 98 94 93 93 96 96 96 96 97 96 96 97 96
98 93 75 66 70 70 71 74 74 80 90 86 97 85 88 95 96 92 76 83 95 96 96 97 96 97 96 93 96 95 97 96 94 92 89 95 97 97 94 96 98 97 97 96 96 96 96 96 97 97 97 97 97 97
75 69 77 72 75 76 83 90 93 88 94 91 81 92 96 96 94 78 96 95 96 98 98 96 97 96 95 96 97 96 92 95 96 94 94 94 96 96 92 93 97 97 96 96 96 96 96 96 97 97 97 97 97 97
58 73 84 84 78 95 82 91 84 91 94 94 92 97 96 97 84 86 96 96 97 96 95 96 97 97 93 92 92 94 93 95 96 95 95 96 95 95 94 97 97 97 96 96 96 95 96 96 96 96 97 97 97 96
57 79 75 88 77 86 94 96 95 89 96 95 93 96 96 92 95 95 95 97 96 95 98 98 92 96 94 95 97 97 97 96 95 93 95 97 96 96 97 97 97 97 96 94 94 95 96 96 96 96 97 97 96 93
94 80 85 94 92 91 94 96 97 94 92 96 97 83 63 90 92 99 93 98 97 96 94 97 95 94 96 98 97 95 95 98 98 94 98 98 97 96 96 96 96 97 96 96 95 95 94 89 80 72 67 65 59 51
98 98 84 80 89 80 85 73 76 90 98 99 97 92 90 99 100 98 98 100 99 97 96 96 95 93 95 94 94 97 97 97 97 95 98 98 98 98 98 96 95 96 97 97 96 96 88 88 86 82 74 70 65 57
88 79 94 83 78 78 91 94 96 100 98 95 79 99 100 100 99 100 100 100 100 100 100 96 96 97 97 95 96 96 96 96 96 97 96 96 96 97 97 97 97 97 97 96 93 84 81 79 81 90 85 54 48 51
77 71 68 92 86 93 95 99 100 98 95 98 98 100 100 100 100 100 100 93 97 97 94 93 94 94 96 98 96 96 97 96 97 96 96 97 96 96 97 98 98 98 97 97 97 97 95 84 59 54 53 52 48 51
79 65 78 92 96 100 92 91 96 91 84 86 100 100 99 100 100 100 94 90 89 92 94 96 97 96 95 97 97 98 98 98 98 97 96 96 98 99 98 96 96 87 80 80 80 74 68 75 67 58 53 54 55 55
66 66 82 94 97 100 94 83 80 79 82 89 84 88 95 98 100 100 96 100 99 95 94 97 99 98 97 96 98 99 96 97 97 97 98 98 98 98 98 98 98 97 90 70 58 60 63 58 56 57 63 68 69 73
68 69 85 99 97 90 93 91 87 94 90 92 96 91 99 99 100 100 100 100 98 92 74 57 59 50 44 39 40 41 44 52 58 61 61 59 62 65 66 67 69 70 77 84 85 85 85 84 86 88 87 82 78 75
76 73 80 83 96 99 95 97 91 96 94 94 98 97 97 94 100 100 100 98 93 65 52 46 42 39 42 45 46 44 41 39 37 37 38 39 43 46 49 54 58 64 64 66 69 77 80 83 87 86 76 68 64 59

GFSWCAN_850_rhum_111.txt.gz
RH
98 98 86 93 97 100 97 92 86 81 78 84 82 82 89 95 98 100 90 95 94 92 88 80 76 78 80 80 91 73 78 88 94 97 95 94 96 85 95 68 96 97 97 96 94 92 85 60 65 75 78 66 73 71
76 87 85 89 94 92 75 71 75 83 84 77 74 73 84 98 98 98 99 94 98 99 82 72 66 76 85 79 87 84 79 94 87 97 96 95 96 94 93 94 98 97 98 93 76 75 67 89 85 68 78 76 57 55
97 86 85 90 92 80 90 88 79 74 73 67 66 72 78 87 97 98 93 99 99 100 88 79 52 45 62 52 57 85 84 73 84 86 92 92 98 91 99 93 93 98 98 100 92 90 91 89 74 78 77 72 63 58
98 98 81 88 89 86 86 78 83 86 86 81 82 92 77 74 77 85 98 99 95 98 99 75 58 57 52 58 63 64 71 75 75 80 89 98 93 78 95 80 88 99 99 99 100 99 98 89 68 60 59 61 71 65
81 93 74 90 88 90 81 78 82 80 75 71 64 74 75 75 88 87 100 99 99 98 97 85 62 38 42 48 50 55 70 74 75 87 99 97 87 95 92 93 98 91 70 97 98 80 98 96 78 78 84 92 89 81
87 77 84 86 89 89 80 81 86 90 90 76 82 76 73 81 96 99 98 94 99 97 98 97 65 46 40 53 55 71 67 80 81 85 92 94 92 83 98 98 65 74 66 64 62 63 68 88 87 86 80 74 69 68
82 84 79 81 81 72 68 75 81 76 70 75 93 89 91 94 98 98 93 79 84 100 99 95 93 57 56 52 57 67 78 81 75 87 100 96 83 72 96 96 93 88 84 86 77 71 77 86 85 84 91 90 78 77
80 82 78 80 90 91 85 83 82 84 84 89 94 96 97 98 98 99 85 97 92 99 94 99 93 81 56 68 82 86 90 90 97 98 99 99 97 99 98 98 97 95 81 76 90 87 86 80 91 95 90 86 85 85
77 89 94 90 83 77 67 71 75 91 94 98 98 98 99 99 99 97 86 93 97 86 99 95 97 92 74 76 83 100 100 99 100 99 98 99 97 98 95 92 97 100 100 100 93 90 82 84 84 90 94 93 94 94
78 84 80 77 72 68 85 81 95 98 99 99 98 98 98 98 97 91 99 99 99 98 100 98 75 97 75 84 99 100 100 99 100 95 94 100 99 100 100 100 100 99 99 94 100 99 100 100 98 100 97 95 98 100
74 76 71 69 76 85 95 99 99 99 99 99 98 99 99 100 94 98 100 98 98 97 99 96 84 91 62 90 94 99 98 98 98 85 97 97 97 95 99 100 100 98 94 100 100 100 100 100 100 100 100 96 95 96
72 80 91 97 96 98 98 99 99 99 98 94 86 99 99 97 99 98 97 97 96 91 91 92 86 85 70 79 92 99 95 93 90 94 99 96 93 98 96 99 100 95 91 93 94 98 97 96 100 100 100 100 100 99
98 98 98 99 99 99 99 99 100 100 98 99 98 99 92 99 99 99 97 97 94 93 90 99 99 80 93 91 98 95 94 94 85 100 92 91 97 95 95 96 88 87 85 79 78 82 87 90 94 100 100 100 99 99
99 99 100 99 99 99 99 99 98 99 100 98 99 98 95 98 94 92 91 90 76 86 82 89 98 84 96 92 97 98 92 94 98 97 95 93 99 95 94 93 85 86 83 77 74 78 85 92 93 96 97 98 99 98
99 98 99 99 99 100 100 98 99 99 100 99 89 99 99 85 98 99 99 98 99 98 86 88 91 90 98 97 88 92 85 88 97 96 98 98 100 92 89 92 90 90 87 79 78 79 83 88 92 95 94 96 97 98
92 100 99 99 99 99 99 99 100 98 94 84 87 97 96 93 98 98 100 100 100 90 78 76 95 99 98 94 88 82 92 96 95 99 95 89 87 83 86 92 90 90 89 82 80 82 87 92 93 93 95 96 96 96
99 97 98 99 100 100 99 98 93 97 96 85 98 97 97 96 98 97 98 98 100 94 96 90 85 83 94 95 96 97 98 97 98 92 84 80 77 74 77 78 78 77 83 81 80 80 81 87 93 96 96 97 97 96
93 100 100 99 99 99 98 95 94 95 96 96 93 97 97 98 96 96 98 97 98 98 92 97 81 93 97 95 98 98 96 96 96 94 95 98 78 77 79 86 86 86 85 88 90 90 87 88 94 95 96 97 97 96
100 100 100 100 94 93 96 90 71 94 97 96 96 94 94 96 98 99 98 96 97 95 76 74 92 100 99 97 97 97 98 98 97 91 93 99 87 77 76 87 90 88 94 95 96 97 94 92 95 96 97 98 97 97
99 99 99 99 92 80 96 83 74 86 98 95 87 91 95 96 94 96 95 95 94 94 93 95 98 98 96 98 97 96 95 94 95 91 92 96 96 90 87 90 96 93 90 91 92 93 93 94 96 97 98 98 98 96
98 99 99 91 66 66 72 78 85 85 79 84 84 84 90 85 90 86 84 91 83 96 96 97 98 98 97 96 94 95 99 100 98 98 95 93 100 100 96 90 99 100 97 96 98 97 98 97 97 97 97 97 97 97
98 93 77 69 64 69 72 75 75 78 85 91 94 81 87 93 93 87 76 82 96 97 97 96 98 97 95 92 96 97 97 97 94 92 91 94 98 97 95 95 100 100 98 98 97 97 96 96 96 97 97 97 98 97
92 91 88 89 85 78 78 93 88 86 95 98 85 92 98 96 93 76 95 96 97 99 98 97 99 96 94 97 98 96 92 95 94 91 92 94 98 98 94 92 98 100 99 97 97 96 96 96 96 96 97 96 97 97
89 89 88 84 77 97 97 97 88 94 95 93 93 98 97 92 72 81 100 99 98 98 96 98 97 95 92 91 90 90 90 94 97 97 95 98 97 94 95 96 95 94 95 96 97 97 96 97 96 96 97 97 97 97
69 82 76 87 80 87 95 97 94 89 97 96 94 97 97 90 95 95 96 97 96 97 96 92 92 93 92 97 97 95 95 94 96 90 94 98 100 97 95 95 95 96 97 96 96 96 96 96 96 96 97 97 96 97
94 94 90 98 93 90 94 97 96 96 92 95 95 92 64 88 91 100 92 95 97 97 100 96 88 88 92 96 96 94 95 98 100 92 94 97 97 97 96 96 96 97 97 97 97 96 95 93 88 86 86 88 86 77
96 97 87 85 90 77 87 77 80 90 98 100 96 95 89 99 100 98 100 99 98 99 99 99 100 94 94 96 96 97 97 97 96 94 95 96 96 96 96 96 96 97 97 97 97 97 96 83 77 75 71 68 66 63
85 77 92 85 80 80 94 96 98 100 99 95 79 99 100 100 100 100 95 100 93 96 91 90 93 96 96 96 97 96 94 94 96 96 96 96 96 96 97 97 97 97 96 96 96 96 94 91 85 85 84 86 84 68
78 72 67 96 92 94 100 100 100 100 98 91 99 100 100 100 100 100 100 100 100 100 95 91 89 94 96 95 96 100 99 97 95 97 96 95 96 96 96 97 97 97 97 97 96 96 97 97 96 90 83 69 58 62
79 71 87 94 96 100 100 100 100 98 90 87 98 100 99 100 100 100 97 95 98 100 100 100 96 96 99 100 99 98 99 98 97 98 98 97 96 97 98 97 97 97 97 97 96 95 96 96 94 92 82 76 72 65
68 71 85 95 100 100 97 97 94 90 92 93 88 92 98 100 100 100 94 91 91 94 93 97 97 96 95 96 98 99 97 98 98 98 98 98 99 98 98 98 98 96 95 94 80 62 51 54 58 61 63 66 66 76
68 73 87 98 97 99 99 82 84 89 88 87 89 86 94 91 97 98 100 100 97 82 68 64 61 52 43 40 40 40 46 59 60 58 55 55 55 60 61 63 63 65 74 86 92 93 86 79 80 87 90 87 82 82
82 77 80 80 99 100 95 98 96 96 97 98 99 99 100 93 94 95 96 95 87 55 41 39 40 39 40 43 44 42 40 39 38 38 38 38 40 44 46 50 55 62 69 70 71 82 90 88 87 83 80 78 73 66

GFSWCAN_850_rhum_114.txt.gz
RH
74 75 74 99 91 80 95 89 92 96 85 78 80 76 79 84 86 87 88 95 95 97 80 71 65 81 83 84 96 72 80 85 90 94 95 93 95 92 95 68 97 97 97 97 96 95 85 81 79 85 94 90 91 90
80 87 80 96 89 83 86 92 96 92 88 79 79 84 82 95 93 93 98 96 99 99 81 75 70 70 67 64 93 86 78 89 84 96 96 97 95 91 93 91 100 97 98 96 91 75 86 91 93 89 69 91 86 69
85 89 90 94 88 81 88 91 93 84 80 81 80 79 74 80 86 98 99 99 99 99 98 100 66 50 58 54 53 86 73 74 82 89 98 97 99 90 95 91 94 96 98 99 100 91 94 96 79 77 90 91 85 82
78 80 86 90 79 76 89 80 74 76 85 76 74 69 69 83 81 87 98 95 99 98 99 76 58 53 50 57 65 67 66 77 84 89 83 97 95 77 90 77 90 98 100 95 98 100 95 87 93 96 97 92 92 88
86 84 92 92 88 79 88 79 90 87 78 84 86 80 89 87 74 96 96 94 97 95 98 91 61 43 38 40 48 65 74 84 87 88 95 92 96 94 91 95 97 85 99 99 98 99 100 100 100 98 97 100 100 86
75 90 92 95 90 78 82 86 88 82 92 93 79 68 63 72 76 97 98 84 90 98 98 96 59 47 43 44 52 59 60 80 86 90 86 83 78 86 98 96 86 92 94 100 98 100 100 100 100 98 98 100 99 97
78 86 84 89 82 78 80 95 86 87 89 84 87 79 80 78 85 95 98 96 86 96 98 87 91 59 60 62 61 65 83 88 86 97 98 88 86 93 92 92 92 96 92 99 99 86 93 96 100 100 98 98 97 92
86 79 80 82 76 76 82 94 83 78 86 83 69 79 92 89 96 98 91 100 99 100 97 94 92 83 63 72 78 80 88 95 98 97 99 98 97 99 98 95 95 97 78 80 82 100 99 99 88 97 100 100 99 98
80 76 78 80 77 80 84 75 77 84 83 80 74 89 98 98 98 98 79 99 98 98 96 91 93 91 77 85 84 99 100 99 96 98 98 99 99 98 95 96 100 100 100 100 91 97 93 98 100 100 98 100 100 100
76 75 78 82 82 79 87 94 91 88 74 79 98 98 98 97 89 84 98 99 99 98 97 97 85 96 79 96 99 100 99 99 100 98 98 100 96 100 99 98 97 96 97 100 100 98 100 100 100 100 99 100 98 100
68 67 75 87 95 96 90 83 65 67 91 98 98 98 94 99 94 98 98 99 98 98 99 95 83 85 62 93 96 98 99 98 97 90 99 97 96 93 97 98 95 92 90 95 95 99 100 100 100 100 100 100 100 98
72 76 80 83 80 80 77 67 72 96 98 96 97 99 99 98 98 98 90 93 88 88 89 87 88 87 70 77 90 99 98 95 94 96 99 96 93 98 94 96 92 85 82 78 80 85 91 100 100 100 100 100 100 98
73 68 66 69 73 68 66 78 97 98 99 99 98 98 99 98 96 96 95 96 92 92 94 99 97 86 88 100 98 95 97 94 86 99 92 91 98 96 92 88 84 84 78 73 74 80 86 90 95 96 99 100 100 99
73 71 71 76 84 90 93 96 98 98 99 98 98 98 92 99 93 91 88 89 71 76 87 92 99 99 100 97 98 97 92 93 99 98 95 96 100 96 91 88 81 82 78 73 74 79 85 89 92 94 95 98 99 99
92 95 98 98 99 98 98 99 99 99 99 99 94 98 98 82 97 90 90 90 96 100 92 96 97 93 98 97 93 92 85 92 96 95 97 97 100 88 88 88 82 78 73 69 69 71 77 85 90 93 93 95 98 98
99 99 99 99 98 99 99 98 99 98 96 80 88 94 98 94 99 99 99 98 96 100 93 85 98 98 97 95 94 86 92 96 95 97 95 88 83 76 75 78 78 78 80 77 75 74 74 76 83 89 94 94 96 98
99 98 99 99 99 99 99 100 96 96 93 86 99 97 97 96 99 98 98 99 100 100 98 92 91 86 95 97 97 96 98 97 97 98 94 91 78 77 81 85 84 84 86 88 89 87 85 84 92 96 95 94 97 98
99 98 99 99 98 99 99 97 96 96 96 96 93 97 97 98 97 96 97 97 98 99 94 96 84 90 96 95 98 97 96 97 95 87 85 94 95 81 76 84 88 84 83 89 94 94 92 88 93 94 96 97 99 98
95 98 99 99 96 90 96 94 72 95 98 96 96 96 96 96 97 97 97 96 96 95 78 77 91 98 100 98 98 97 97 97 93 88 88 95 96 89 83 81 82 85 84 87 89 90 89 88 93 96 99 99 99 98
99 99 99 99 76 73 84 78 75 86 98 96 93 93 94 95 96 96 96 96 95 95 94 95 97 98 96 99 98 96 96 95 94 93 87 92 100 99 94 90 87 92 96 95 95 95 95 96 96 97 98 98 99 98
98 99 88 78 72 76 74 78 89 82 82 90 90 86 92 89 90 89 80 90 84 96 96 97 97 96 96 94 94 97 98 98 97 98 97 91 94 100 97 94 94 100 100 98 100 99 99 99 98 97 97 97 97 97
98 99 93 76 61 69 73 73 73 77 87 95 83 80 86 90 85 84 76 82 96 97 97 97 97 96 96 95 97 97 97 98 98 96 92 90 99 98 95 93 95 100 100 100 99 100 99 98 97 97 97 96 97 97
94 85 91 96 81 72 83 93 88 84 96 99 82 92 99 98 92 73 96 97 98 98 98 98 98 96 96 97 96 96 93 92 93 92 92 94 99 98 98 98 98 99 100 100 96 92 94 96 97 98 98 98 98 97
97 94 96 95 81 98 98 97 91 94 95 93 94 100 99 82 70 82 100 100 99 98 98 97 96 95 95 96 94 94 92 94 95 95 95 96 93 94 96 97 98 99 99 98 94 94 96 96 97 98 98 97 97 97
79 88 85 90 83 87 98 97 94 90 98 99 96 98 98 82 95 98 100 100 97 97 96 96 95 94 95 96 96 96 96 97 96 89 91 94 100 98 95 96 95 94 95 96 94 95 96 97 97 97 97 98 97 97
94 96 91 97 92 90 94 99 97 98 94 96 97 86 67 91 92 98 90 96 97 99 100 95 92 91 93 97 97 97 97 97 99 96 96 99 98 99 99 96 96 95 94 97 95 96 94 89 87 90 94 95 96 95
96 98 88 86 88 79 87 78 79 88 94 95 95 91 88 98 100 98 100 98 95 96 97 98 100 96 95 96 96 96 97 97 97 96 98 98 97 96 96 96 94 97 97 97 98 97 97 95 87 74 69 66 66 64
83 80 90 87 84 83 95 96 98 100 100 94 79 99 100 94 100 100 100 100 95 97 93 92 96 98 99 99 97 96 96 95 98 98 98 97 97 97 96 97 97 97 96 97 97 97 97 96 91 84 80 84 77 73
79 74 70 97 90 95 100 100 100 100 100 83 97 100 100 100 100 100 100 100 100 100 99 95 88 90 96 96 99 100 100 100 96 97 96 96 97 93 94 97 98 97 96 96 97 97 97 97 98 97 96 92 88 93
82 77 89 92 98 100 100 100 100 99 93 89 97 100 100 100 100 100 98 96 99 100 100 97 94 93 95 95 95 95 97 96 95 96 96 96 95 94 95 96 97 98 98 98 98 98 98 97 97 97 93 92 89 84
77 78 89 93 100 99 99 98 96 92 93 94 89 92 99 100 100 100 96 92 91 91 92 95 95 94 94 93 95 95 95 95 96 95 94 93 93 93 96 94 92 84 87 90 85 74 62 60 62 65 68 71 72 78
76 77 88 100 98 95 99 83 84 85 85 85 91 88 92 92 94 96 90 88 83 67 74 66 50 43 38 37 36 36 36 39 40 41 41 43 45 48 52 54 60 63 68 81 87 87 86 80 80 82 84 83 80 79
83 77 81 89 100 100 98 98 96 98 96 99 99 99 97 88 91 93 90 91 71 48 41 38 38 38 38 37 38 39 39 38 38 38 37 36 36 37 41 44 47 51 52 56 61 69 80 83 81 77 72 69 65 64